Yakima, WA
on Monday, November 5, 2012

Monday
Previous Day Next Day
Daily Summary
 ActualAverageRecord
Temperature
Mean Temperature °F 41°F  
Max Temperature 66°F 54°F 69°F (1949)
Min Temperature 40°F 29°F 13°F (2003)
Degree Days
Heating Degree Days 12 24  
Month to date heating degree days 70 115  
Since 1 July heating degree days 607 819  
Cooling Degree Days 0 0  
Month to date cooling degree days 0 0  
Year to date cooling degree days 667 472  
Growing Degree Days2 (Base °F )  
Moisture
Dew Point 43°F   
Average Humidity 69    
Maximum Humidity 93    
Minimum Humidity 44    
Precipitation
Precipitation 0.00 in 0.03 in 0.58 in (2005)
Month to date precipitation 0.06 0.14  
Year to date precipitation 6.59 5.81  
Snow
Snow 0.00 in 0.10 in 0.60 in (1973)
Month to date snowfall 0.0 0.1  
Year to date snowfall 21.5 8.8  
Since 1 July snowfall 0.0 0.2  
Snow Depth 0.00 in   
Wind
Wind Speed 4 mph   
Max Wind Speed 10 mph   
Max Gust Speed 18 mph   
Visibility 7 miles   
Events Fog   

Key: T is trace of precipitation, MM is missing value
Source: NWS Daily Summary
Time(PST)TemperatureDew PointHumidity Pressure Visibility Wind DirectionWind SpeedGust SpeedPrecipitationEvents Conditions
12:53 AM 46.0°F 43.0°F 89% 30.26 in 6.0 miles Calm Calm - N/A   Clear
1:53 AM 46.0°F 43.0°F 89% 30.26 in 5.0 miles SSW 4.6 mph - N/A   Clear
2:53 AM 45.0°F 42.1°F 90% 30.25 in 5.0 miles Variable 4.6 mph - N/A   Clear
3:53 AM 44.1°F 41.0°F 89% 30.22 in 5.0 miles Calm Calm - N/A   Clear
4:53 AM 43.0°F 39.9°F 89% 30.22 in 5.0 miles West 3.5 mph - N/A   Clear
5:53 AM 41.0°F 39.0°F 93% 30.22 in 6.0 miles Calm Calm - N/A   Clear
6:53 AM 41.0°F 39.0°F 93% 30.23 in 6.0 miles Calm Calm - N/A   Scattered Clouds
7:22 AM 42.8°F 39.2°F 87% 30.22 in 0.5 miles Calm Calm - N/A   Mostly Cloudy
7:35 AM 42.8°F 39.2°F 87% 30.22 in 0.2 miles ENE 3.5 mph - N/A Fog Fog
7:53 AM 44.1°F 41.0°F 89% 30.25 in 0.2 miles Calm Calm - N/A Fog Fog
8:10 AM 44.6°F 42.8°F 93% 30.24 in 1.0 miles Calm Calm - N/A   Mostly Cloudy
8:26 AM 46.4°F 44.6°F 93% 30.25 in 2.5 miles West 3.5 mph - N/A   Partly Cloudy
8:40 AM 46.4°F 44.6°F 93% 30.25 in 3.0 miles SW 3.5 mph - N/A   Partly Cloudy
8:53 AM 48.0°F 46.0°F 93% 30.27 in 4.0 miles WNW 4.6 mph - N/A   Partly Cloudy
9:53 AM 57.0°F 51.1°F 81% 30.27 in 10.0 miles Calm Calm - N/A   Clear
10:53 AM 60.1°F 48.0°F 64% 30.28 in 10.0 miles West 3.5 mph - N/A   Clear
11:53 AM 61.0°F 46.9°F 60% 30.27 in 10.0 miles West 4.6 mph - N/A   Clear
12:53 PM 63.0°F 44.1°F 50% 30.27 in 10.0 miles NW 6.9 mph - N/A   Clear
1:53 PM 64.0°F 46.9°F 54% 30.26 in 10.0 miles WNW 4.6 mph - N/A   Clear
2:53 PM 64.9°F 43.0°F 45% 30.25 in 10.0 miles West 4.6 mph - N/A   Clear
3:53 PM 62.1°F 44.1°F 52% 30.25 in 10.0 miles West 5.8 mph - N/A   Clear
4:53 PM 57.0°F 44.1°F 62% 30.25 in 10.0 miles West 5.8 mph - N/A   Clear
5:53 PM 51.1°F 44.1°F 77% 30.25 in 10.0 miles West 9.2 mph - N/A   Clear
6:53 PM 48.0°F 43.0°F 83% 30.24 in 10.0 miles West 6.9 mph - N/A   Clear
7:53 PM 46.0°F 42.1°F 86% 30.23 in 8.0 miles WNW 6.9 mph - N/A   Clear
8:53 PM 44.1°F 41.0°F 89% 30.22 in 7.0 miles West 8.1 mph - N/A   Clear
9:53 PM 48.0°F 42.1°F 80% 30.20 in 10.0 miles WSW 9.2 mph - N/A   Clear
10:53 PM 46.0°F 41.0°F 83% 30.20 in 10.0 miles WSW 5.8 mph - N/A   Clear
11:53 PM 43.0°F 39.0°F 86% 30.19 in 10.0 miles West 6.9 mph - N/A   Clear
Moon Phase
Nov. 05 Nov. 06 Nov. 13 Nov. 20 Nov. 28
Sunrise:06:50 AM (PST) Moon Rise:10:23 PM (PST)11/5
Sunset:04:40 PM (PST) Moon Set:12:13 PM (PST)11/5

Copyright © 2014 The Weather Underground, Inc.